{"data":{"norad_id":57170,"epoch":"2026-09-21T21:54:09.438336Z","epoch_age_seconds":80559,"freshness":"FRESH","line1":"1 57170U 23091E   26264.91260924  .00005425  00000+0  21689-3 0  9992","line2":"2 57170  97.5020 326.7743 0010336 111.2653 248.9690 15.25484626178905","mean_motion":15.25484626,"eccentricity":0.0010336,"inclination_deg":97.502,"raan_deg":326.7743,"arg_perigee_deg":111.2653,"mean_anomaly_deg":248.969,"bstar":0.00021689,"rev_number":17890,"period_min":94.396231561891,"perigee_km":482.23236589337,"apogee_km":496.42879487554,"semimajor_km":6867.4675803845,"source":"CELESTRAK","updated_at":"2026-09-22T09:00:26.072972Z"}}